Location: Cincinnati Observatory Center
(39.1389°N, 84.4225°W)
Time: 11:10:44
(UTC-04:00)

Daily predictions for brighter satellites

Satellite Brightness Start Highest point End
(mag) Time Altitude Azimuth Time Altitude Azimuth Time Altitude Azimuth
Cosmos 1331 Rocket 4.2 20:44:23 10° SSW 20:49:41 81° WNW 20:55:02 10° NNE
CZ-2D R/B 3.6 20:46:00 10° SSE 20:49:44 46° ENE 20:53:29 10° N
SL-16 R/B 3.0 20:49:02 10° SSE 20:53:46 28° ESE 20:58:31 10° NE
Nadezhda 4 Rocket 4.0 20:48:01 10° N 20:54:19 76° E 21:00:37 10° SSE
FengYun 1-2 T 4.5 20:50:53 10° S 20:56:32 80° WSW 21:02:14 10° NNW
ATLAS 5 CENTAUR R/B 4.2 20:56:54 10° N 21:00:44 17° NE 21:04:44 10° ENE
Cosmos 1634 Rocket 4.3 20:55:27 10° SSE 21:01:27 49° E 21:07:31 10° NNE
Cosmos 1707 Rocket 3.6 20:59:11 10° S 21:03:34 62° E 21:07:57 10° NNE
Cosmos 1092 Rocket 4.1 20:57:43 10° N 21:04:02 65° E 21:10:20 10° SSE
Helios 1B rocket 3.0 21:01:24 10° NNE 21:05:10 34° E 21:08:54 10° SSE
Lacrosse 4 Rocket 2.8 21:01:51 10° N 21:05:26 25° NE 21:08:46 11° ESE
USA 186 1.7 21:03:25 10° SSE 21:05:59 45° ENE 21:08:44 10° N
ALOS 3.6 21:05:11 10° S 21:09:36 42° W 21:14:03 10° NNW
ERBS 3.2 21:06:48 10° NNW 21:10:02 36° NE 21:12:44 14° ESE
Cosmos 1733 Rocket 4.4 21:07:48 10° NNE 21:11:21 23° ENE 21:14:14 13° ESE
SAR-Lupe-4 4.2 21:08:10 10° SE 21:11:29 37° ENE 21:14:50 10° N
CENTAUR R/B 4.0 21:05:56 10° WSW 21:11:40 42° NW 21:18:10 10° NNE
Cosmos 1939 Rocket 4.0 21:08:25 11° SE 21:11:44 28° ENE 21:15:10 10° NNE
Cosmos 1486 Rocket 4.0 21:07:51 10° NNW 21:13:06 76° ENE 21:18:20 10° SSE
SeaSat 1 4.5 21:17:54 10° ENE 21:20:18 14° NE 21:22:43 10° NNE
Resurs 1-3 3.9 21:16:54 10° S 21:21:15 68° WSW 21:25:38 10° NNW
Cosmos 1869 Rocket 3.9 21:18:13 10° NNW 21:22:42 72° W 21:27:08 10° S
Cosmos 2227 4.2 21:17:36 10° NNW 21:23:23 84° ENE 21:29:05 10° SSE
Cosmos 1408 3.1 21:21:28 10° N 21:24:59 39° E 21:27:27 17° SE
Atlas Centaur 2 3.7 21:20:38 10° SW 21:26:32 29° SSE 21:31:32 16° ESE
SAR-Lupe-1 4.2 21:26:08 15° SSE 21:28:57 53° ENE 21:32:28 10° N
Abrixas rocket 4.0 21:28:19 10° W 21:31:18 31° NNW 21:34:18 10° NE
Cosmos 2242 Rocket 3.6 21:30:38 10° S 21:35:07 67° E 21:39:35 10° NNE
Cosmos 1455 3.8 21:33:01 10° SSW 21:36:33 37° WNW 21:40:05 10° N
Cosmos 1627 Rocket 4.4 21:32:00 10° N 21:38:15 78° E 21:44:22 10° S
Helios 1A 3.0 21:36:37 10° SSE 21:40:51 82° WSW 21:45:07 10° NNW
Cosmos 2195 Rocket 4.4 21:35:40 10° N 21:41:48 85° E 21:47:57 10° S
Cosmos 2279 Rocket 4.0 21:36:33 10° S 21:42:40 62° E 21:48:48 10° NNE
Cosmos 1503 Rocket 3.9 21:39:13 10° NNW 21:44:29 74° ENE 21:48:09 20° SSE
DELTA 2 R/B (1) 4.5 21:41:09 10° W 21:46:19 38° SSW 21:49:34 20° SSE
CZ-3B DEB 3.5 21:47:00 10° W 21:47:55 11° WSW 21:48:44 10° SW
Cosmos 1354 Rocket 3.9 21:43:09 10° NNW 21:48:27 81° ENE 21:52:09 20° SSE
Cosmos 1869 4.1 21:45:40 10° SSW 21:49:29 51° W 21:53:21 10° N
Resurs 01 Rocket 3.7 21:48:47 10° SSW 21:52:30 26° W 21:56:16 10° NW
H-2A R/B 3.7 21:52:50 15° ENE 21:53:44 15° ENE 21:56:31 10° NNE
OAO 3 Rocket 3.4 21:49:47 10° WSW 21:54:33 53° S 21:56:39 31° ESE
SJ-11-01 4.2 21:51:19 17° SSE 21:54:58 87° WSW 21:59:40 10° NNW
CZ-4B DEB 3.0 21:54:21 25° S 21:55:54 60° W 21:58:55 10° NNW
YAOGAN 6 2.7 21:56:56 40° SE 21:57:55 54° ENE 22:01:29 10° N
Cosmos 1428 Rocket 4.4 21:54:36 10° N 22:00:44 72° E 22:04:53 21° SSE
FALCON 9 R/B 2.1 21:59:39 10° WSW 22:00:46 20° SW 22:00:46 20° SW
Meteor 1-29 3.8 21:58:16 10° N 22:01:40 51° WNW 22:05:01 10° SSW
Cosmos 2180 Rocket 4.5 21:58:28 10° S 22:04:49 77° E 22:11:11 10° N
SPOT 5 3.7 22:04:10 29° E 22:05:10 32° ENE 22:09:19 10° N
Cosmos 968 Rocket 4.3 22:00:46 10° N 22:05:30 34° ENE 22:06:50 30° E
Cosmos 2263 Rocket 2.2 22:00:31 10° NNW 22:06:03 63° ENE 22:08:25 34° SE
COSMOS 2428 4.3 22:10:12 17° ENE 22:10:12 17° ENE 22:12:15 10° NE
Meteor 2-10 Rocket 3.8 22:05:37 22° SSE 22:09:16 57° E 22:14:58 10° NNE
Cosmos 2322 Rocket 2.6 22:04:15 10° SSW 22:09:47 63° WNW 22:15:23 10° NNE
Envisat 3.6 22:05:47 12° S 22:10:19 54° W 22:15:19 10° NNW
Cosmos 1933 3.4 22:11:30 22° SSW 22:14:03 79° W 22:18:06 10° N
Sich 1 Rocket 3.8 22:11:39 10° N 22:15:59 49° E 22:16:31 46° ESE
Cosmos 2360 Rocket 2.1 22:15:49 17° S 22:20:08 60° ESE 22:25:43 10° NNE
H-2A R/B 4.1 22:23:59 15° NE 22:23:59 15° NE 22:25:50 10° NNE
Cosmos 1825 3.9 22:21:36 10° NNW 22:24:58 31° W 22:27:16 17° SW
USA 234 3.4 22:22:52 32° SSE 22:26:04 66° SW 22:32:35 10° NW
Cosmos 2322 3.7 22:25:28 32° S 22:28:00 60° ESE 22:33:37 10° NNE
Cosmos 1908 Rocket 3.4 22:24:15 10° N 22:28:35 69° E 22:28:49 67° ESE
NOAA 11 4.1 22:28:03 45° SSE 22:29:47 75° ENE 22:35:16 10° N
SEDSat Delta rocket 4.2 22:25:20 10° WSW 22:30:29 39° S 22:30:34 39° S
USA 245 4.3 22:30:43 46° SE 22:32:11 61° ENE 22:37:23 10° N
SL-16 R/B 3.6 22:32:25 10° SW 22:37:40 39° WNW 22:42:58 10° N
SPOT 1/Viking Rocket 3.8 22:40:22 50° E 22:40:43 51° ENE 22:45:45 10° N
Cosmos 1782 Rocket 4.0 22:38:19 10° N 22:41:59 50° NE 22:41:59 50° NE
MetOp-B 4.1 22:42:09 53° S 22:43:27 85° WSW 22:48:51 10° NNW
ERS-1 Rocket 3.5 22:42:09 35° SSW 22:43:58 54° W 22:48:54 10° NNW
Lacrosse 4 Rocket 2.9 22:40:18 10° NW 22:44:08 31° WSW 22:45:08 28° SW
Okean 2 Rocket 4.0 22:41:34 10° N 22:44:59 38° NE 22:44:59 38° NE
ATLAS 5 CENTAUR R/B 2.4 22:40:17 10° NNW 22:46:21 75° NE 22:47:45 56° ESE
Cosmos 2333 Rocket 4.4 22:52:12 12° ENE 22:52:12 12° ENE 22:52:42 10° NE
Milstar 3 3.8 22:47:24 10° WSW 22:53:09 27° SSW 22:53:09 27° SSW
ARGOS 3.0 22:52:58 69° SSE 22:53:40 90° W 22:59:04 10° NNW
SeaSat 1 2.3 22:57:02 86° SE 22:57:09 89° NE 23:02:06 10° NNW
Cosmos 2278 Rocket 4.0 22:56:04 10° N 22:59:45 17° NE 23:00:07 17° ENE
Okean 1-7 3.7 23:07:56 52° N 23:07:56 52° N 23:11:21 10° N
Cosmos 1777 Rocket 4.3 23:01:56 10° NNW 23:06:40 58° NE 23:06:40 58° NE
Terra 2.9 23:10:04 35° NE 23:10:04 35° NE 23:13:20 10° N
SL-08 RB Rocket 4.0 23:09:48 65° NW 23:09:48 65° NW 23:13:50 10° NNW
Cosmos 1844 Rocket 3.2 23:04:05 10° N 23:09:04 44° NE 23:09:04 44° NE
USA 229 DEB 3.6 23:04:14 10° SW 23:11:04 83° NW 23:18:03 10° NNE
USA 229 3.6 23:04:20 10° SW 23:11:10 83° NW 23:18:08 10° NNE
Atlas Centaur 2 3.4 23:08:17 10° WSW 23:14:12 42° SSW 23:14:12 42° SSW
Cosmos 2266 Rocket 4.4 23:10:25 10° NNW 23:16:32 57° W 23:18:12 44° SW
MOS 1-B Rocket 4.3 23:22:53 53° SW 23:23:42 57° WSW 23:29:18 10° NNW
Cosmos 2219 Rocket 3.5 23:28:37 28° NE 23:28:37 28° NE 23:31:21 10° NNE
Meteor 1-10 Rocket 4.4 23:29:38 74° NNE 23:29:38 74° NNE 23:34:59 10° N
CZ-4C R/B 3.9 23:24:13 10° NNW 23:30:30 33° NE 23:32:09 30° ENE
H-2A R/B 2.5 23:33:27 54° WNW 23:33:27 54° WNW 23:37:34 10° NNW
Cosmos 1867 4.2 23:28:09 10° NW 23:32:45 49° W 23:32:45 49° W
Cosmos 1244 Rocket 4.4 23:31:57 10° N 23:37:58 81° NW 23:37:58 81° NW
ASTEX 1 4.4 23:43:30 44° N 23:43:30 44° N 23:46:54 10° N
Cosmos 1553 Rocket 4.2 23:48:00 63° NNE 23:48:00 63° NNE 23:53:13 10° N
Cosmos 2263 Rocket 4.3 23:46:04 10° WNW 23:49:21 16° W 23:50:09 16° WSW
H-2A R/B 4.1 23:06:48 10° W 23:51:23 46° SSW 23:51:33 46° SSW
COSMOS 2428 3.3 23:52:07 53° WNW 23:52:07 53° WNW 23:57:35 10° NNE
